Printer-friendly version

IAU Minor Planet Center

Minor Planet Center

MPEC 2005-H36 : 2003 NZ6

The following Minor Planet Electronic Circular may be linked-to from your own Web pages, but must not otherwise be redistributed electronically.


Read MPEC 2005-H35 Read MPEC 2005-H37


M.P.E.C. 2005-H36                                Issued 2005 Apr. 28, 20:16 UT

     The Minor Planet Electronic Circulars contain information on unusual
         minor planets and routine data on comets.  They are published
   on behalf of Commission 20 of the International Astronomical Union by the
          Minor Planet Center, Smithsonian Astrophysical Observatory,
                          Cambridge, MA 02138, U.S.A.

                  Supported in part by the Brinson Foundation
             Prepared using the Tamkin Foundation Computer Network

                              MPC@CFA.HARVARD.EDU
          URL http://cfa-www.harvard.edu/iau/mpc.html  ISSN 1523-6714

                                   2003 NZ6

                           Revision to MPEC 2003-N39

Additional Observations:
     K03N06Z  C2005 04 27.37912 20 40 58.32 +70 26 29.9          18.9   EH036704
     K03N06Z  C2005 04 27.38783 20 40 50.36 +70 26 49.9          19.2   EH036704
     K03N06Z  C2005 04 27.39639 20 40 43.56 +70 27 11.1          19.3   EH036704
     K03N06Z  C2005 04 27.40502 20 40 35.92 +70 27 32.7          19.5   EH036704
     K03N06Z  C2005 04 28.82262 20 19 49.92 +71 15 44.4          18.5 R EH036118
     K03N06Z  C2005 04 28.82728 20 19 45.67 +71 15 53.3          18.8 R EH036118
     K03N06Z  C2005 04 28.82961 20 19 43.65 +71 15 57.6          18.5 R EH036118
     K03N06Z  C2005 04 28.83076 20 19 42.47 +71 15 59.7          18.6 R EH036118
     K03N06Z  C2005 04 28.83309 20 19 40.25 +71 16 04.6                 EH036118

Observer details:
118 Modra.  Observers S. Gajdos, J. Vilagi.  0.6-m f/5.5 reflector + CCD.
704 Lincoln Laboratory ETS, New Mexico.  Observers M. Blythe, F. Shelly,
    M. Bezpalko, R. Huber, L. Manguso, D. Torres, R. Kracke, M. McCleary,
    H. Stange, A. Milner.  Measurers J. Stuart, R. Sayer, J. Evans, J. Kommers.
    1.0-m f/2.15 reflector + CCD.

First and last observations above in comparison with prediction:
Residuals in seconds of arc (or two decimals in degrees), reference and Delta-T
050427 704 0.69+ 1.41+    050428 118 0.52+ 1.46+    MPO 50772   +0.30 day

Orbital elements:
2003 NZ6
Epoch 2005 Jan. 30.0 TT = JDT 2453400.5                 MPC
M 330.73312              (2000.0)            P               Q
n   1.39506377     Peri.  311.53849     +0.20689907     -0.94394628
a   0.7932438      Node   124.70520     +0.96468997     +0.15303315
e   0.4924665      Incl.   18.23259     +0.16299090     +0.29248296
P   0.71           H   18.9           G   0.15           U   4
Residuals in seconds of arc
030709 704  0.5+  1.2-    030710 151  0.4+  1.4+    030714 649  0.1+  0.3-
030709 704  0.5+  1.0-    030710 J95  0.1-  0.0     030714 649  0.2+  0.2-
030709 704  0.7+  1.2-    030710 J95  0.0   0.0     030714 649  0.1+  0.1+
030709 704 (1.0+  2.5-)   030710 J95  0.0   0.1+    030714 649  0.1+  0.1+
030709 704  0.2-  0.0     030710 118  0.0   0.3+    030714 649  0.1+  0.2-
030709 J95  0.2-  0.5-    030710 118  0.2+  0.2+    030714 151  0.6+  0.1+
030709 J95  0.4-  0.4+    030710 118  0.2+  0.2+    030714 151  0.5+  0.7-
030709 J95  0.4-  0.1+    030710 118  0.1+  0.2+    030714 151  0.2+  0.5-
030709 J95  0.1-  0.2-    030710 118  0.2+  0.1+    030714 151  0.6-  1.1-
030709 J95  0.2+  0.0     030711 649  0.2+  0.1-    030714 151  0.5+  1.0+
030709 J95  0.2-  0.1+    030711 649  0.1+  0.4+    030714 151  0.8+  1.3+
030709 J95  0.1-  0.1-    030711 649  0.1+  0.3-    030714 151  0.0   0.6+
030709 J95  0.1-  0.0     030711 649  0.2-  0.1+    030714 151  0.3-  1.1+
030709 966  0.2+  0.1+    030711 A50  0.2+  0.1-    030714 636  0.3-  0.9+
030710 966  0.3+  0.1-    030711 A50  0.2+  0.1+    030714 636  0.0   0.7-
030710 966  0.0   0.2+    030711 A50  0.0   0.3+    030714 636  0.5-  0.2+
030710 966  0.2+  0.1+    030711 A50  0.1+  0.4-    030714 636  0.2-  0.0
030710 118  0.1-  0.1+    030711 A50  0.2+  0.4-    030716 649  0.2-  0.7+
030710 118  0.1+  0.5+    030711 A50  0.1+  0.2-    030716 649  0.2-  0.5+
030710 118  0.1+  0.1+    030711 A50  0.2-  0.3-    030716 649  0.1-  0.4+
030710 118  0.1-  0.1-    030711 A50  0.2+  0.1+    030716 649  0.3-  0.6+
030710 118  0.2+  0.3+    030711 A50  0.2+  0.1+    030716 649  0.2-  0.5+
030710 J95  0.1-  0.0     030711 A50  0.1+  0.0     030716 649  0.1-  0.6+
030710 J95  0.0   0.1-    030711 A50  0.1+  0.1+    030718 649  0.1+  0.2+
030710 J95  0.1-  0.0     030711 A50  0.0   0.2+    030718 649  0.0   0.1-
030710 704  0.5+  0.3-    030711 J95  0.2-  0.2-    030718 649  0.8+  0.5-
030710 704  0.4+  0.4-    030711 J95  0.1+  0.1+    030718 649  0.6+  0.5-
030710 704  0.2+  1.0-    030711 J95  0.0   0.1+    030718 649  0.0   0.2+
030710 704  0.4+  0.0     030711 J95  0.0   0.1-    030718 649  0.1-  0.0
030710 704  0.0   0.3-    030712 176  0.1+  0.2+    030718 649  0.6+  0.1-
030710 704  0.7+  0.2-    030712 176  0.1+  0.2+    030718 649  0.1-  0.5+
030710 704  0.5+  0.2+    030712 176  0.1+  0.1+    030718 649  0.8-  0.7-
030710 704  0.6+  0.3+    030712 176  0.1+  0.2+    030718 J95  0.1-  0.1+
030710 704  0.7+  0.6-    030712 176  0.0   0.1+    030718 J95  0.2+  0.3+
030710 704  0.4+  0.4-    030712 A50  0.3-  0.6+    030718 J95  0.1-  0.1-
030710 704  0.1+  0.3+    030712 A50  0.3+  0.1+    030719 J95  0.1-  0.2+
030710 704  0.7+  0.5-    030712 A50  0.3+  0.4-    030720 J95  0.1+  0.4-
030710 704  0.5+  0.4+    030712 A50  0.0   0.7+    030720 J95  0.5+  0.1-
030710 704  1.1+  0.5-    030712 A50  0.2+  0.3-    050427 704  0.0   0.5-
030710 151  0.1-  0.1+    030712 A50  0.4+  0.2-    050427 704 (2.5-  1.1-)
030710 151  0.3-  0.5+    030712 A50  0.1+  0.5+    050427 704  0.3+  0.2-
030710 151  0.1-  1.3+    030712 A50  0.4+  0.7+    050427 704  0.7-  1.1+
030710 151  0.3+  0.5+    030712 A50  0.2+  0.4-    050428 118  0.8+  0.2+
030710 151  0.8-  0.3-    030712 A50  0.1+  0.6+    050428 118  0.3+  0.1+
030710 151  0.0   0.0     030713 636  0.4+  0.1+    050428 118  0.6+  0.2-
030710 151 (0.1-  2.5+)   030713 636  0.1+  0.8-    050428 118  0.1-  0.3-
030710 151  0.0   0.7+    030713 636  0.5+  0.5+    050428 118  0.7-  0.0
030710 151  0.5+  1.0+    030714 649  0.0   0.2-

Ephemeris:
2003 NZ6                 a,e,i = 0.79, 0.49, 18                  q = 0.4026
Date    TT    R. A. (2000) Decl.     Delta      r     Elong.  Phase     V
2005 04 20    22 04.63   +64 17.2    0.316    0.921    65.6    96.1    19.7
2005 04 30    20 01.44   +71 49.4    0.316    0.992    78.2    83.7    19.3
2005 05 10    17 13.44   +71 31.3    0.324    1.052    88.4    73.7    19.1
2005 05 20    15 25.18   +64 04.0    0.339    1.100    95.9    66.2    19.1
2005 05 30    14 35.24   +54 06.6    0.363    1.137   100.4    61.3    19.2
2005 06 09    14 12.25   +43 54.9    0.395    1.163   101.9    58.7    19.3
2005 06 19    14 02.62   +34 20.6    0.435    1.179   100.9    57.8    19.5
2005 06 29    14 00.42   +25 42.3    0.480    1.184    98.1    58.2    19.8
2005 07 09    14 02.88   +18 00.2    0.527    1.179    94.1    59.3    20.0
2005 07 19    14 08.54   +11 08.1    0.575    1.163    89.5    60.9    20.2
2005 07 29    14 16.39   +04 58.0    0.619    1.137    84.4    62.7    20.4
2005 08 08    14 25.81   -00 39.5    0.658    1.100    79.2    64.9    20.5
2005 08 18    14 36.26   -05 51.9    0.687    1.052    73.7    67.5    20.6
2005 08 28    14 47.06   -10 45.9    0.705    0.992    68.0    70.7    20.6
2005 09 07    14 57.34   -15 27.3    0.709    0.921    62.0    75.1    20.6

Timothy B. Spahr             (C) Copyright 2005 MPC           M.P.E.C. 2005-H36

Read MPEC 2005-H35 Read MPEC 2005-H37


Our Web policy. Index to the CBAT/MPC/ICQ pages.


Valid HTML 4.01!